Regional Weather Roundup
Issued by NWS

Home | Current Version | Previous Version | Graphics & Text | Print | Product List | Glossary On
Versions: 1 2 3 4 5 6 7 8 9 10 11 12 13 14 15 16 17 18 19 20 21 22 23 24 25 26 27 28 29 30 31 32 33 34 35 36 37 38 39 40 41 42 43 44 45 46 47 48 49 50
000
ASUS45 KBOI 292110
RWRID
WEATHER ROUNDUP FOR IDAHO
NATIONAL WEATHER SERVICE BOISE ID
300 PM MDT SUN MAR 29 2015

NOTE: "FAIR" INDICATES FEW OR NO CLOUDS BELOW 12000 FEET
WITH NO SIGNIFICANT WEATHER AND/OR OBSTRUCTIONS TO VISIBILITY

IDZ012-014-292200-
SOUTHWEST IDAHO


CITY           SKY/WX    TMP DP  RH WIND       PRES   REMARKS
BOISE          SUNNY     64  29  26 CALM      30.24F
CALDWELL       SUNNY     63  32  31 CALM      30.26F
MOUNTAIN HOME  SUNNY     63  24  22 VRB5      30.23F
$$

IDZ016-017-292200-
SOUTHCENTRAL IDAHO


CITY           SKY/WX    TMP DP  RH WIND       PRES   REMARKS
BURLEY         SUNNY     60  20  21 VRB3      30.26F
JEROME         SUNNY     59  21  23 SW10      30.27F
TWIN FALLS     SUNNY     62  22  21 VRB3      30.26F
$$

IDZ019>023-292200-
SOUTHEAST IDAHO


CITY           SKY/WX    TMP DP  RH WIND       PRES   REMARKS
IDAHO FALLS    MOSUNNY   59  18  20 SW13      30.27F
POCATELLO      SUNNY     60  20  21 W14G21    30.27F
REXBURG        SUNNY     57  20  23 SW7       30.26F
$$

IDZ006-010-011-018-031-032-292200-
CENTRAL IDAHO MOUNTAINS


CITY           SKY/WX    TMP DP  RH WIND       PRES   REMARKS
MCCALL         PTSUNNY   54  29  38 VRB3      30.25F
HAILEY         MOSUNNY   57  27  30 SE10      30.26F
STANLEY          N/A     56  19  23 VRB6      30.26F
SALMON         MOSUNNY   55  25  30 N6        30.18F
CHALLIS        SUNNY     60  17  18 E6        30.18F
$$

IDZ002-004-006-007-026-292200-
NORTHERN IDAHO


CITY           SKY/WX    TMP DP  RH WIND       PRES   REMARKS
LEWISTON       SUNNY     62  38  40 NW5       30.21F
LOWELL           N/A     63  40  42 CALM      30.23F
COEUR D`ALENE  CLOUDY    57  39  51 SW3       30.20F
MULLAN PASS    PTSUNNY   39  32  76 VRB3      30.20F
$$


USA.gov is the U.S. government's official web portal to all federal, state and local government web resources and services.